Crestview, FL

3:11 PM CST on February 20, 2017 (GMT -0600)
Sikes

Weather History for KCEW - March, 2014

Change the Weather History Date:

Sunday, March 9, 2014

  Actual Average Record
Temperature  
Mean Temperature 60 °F -  
Max Temperature 75 °F 70 °F 84 °F (1951)
Min Temperature 44 °F 44 °F 28 °F (2008)
Degree Days  
Heating Degree Days 6    
Growing Degree Days 10 (Base 50)    
Moisture  
Dew Point 49 °F    
Average Humidity 73    
Maximum Humidity 97    
Minimum Humidity 37    
Precipitation  
Precipitation 0.00 in - - ()
Sea Level Pressure  
Sea Level Pressure 30.18 in    
Wind  
Wind Speed 1 mph (WSW)    
Max Wind Speed 6 mph    
Max Gust Speed -    
Visibility 9 miles    
Events      
Averages and records for this station are not official NWS values.
T = Trace of Precipitation, MM = Missing Value Source: NWS Daily Summary

Daily Weather History Graph

Daily Weather History Graph

Search for Another Location

Airport or City:

Trip Planner

Search our weather history database for the weather conditions in past years. The results will help you decide how hot, cold, wet, or windy it might be!

Date:

Astronomy

Mar. 09, 2014 Rise Set
Actual Time 7:03 AM CDT 6:50 PM CDT
Civil Twilight 6:39 AM CDT 7:14 PM CDT
Nautical Twilight 6:11 AM CDT 7:42 PM CDT
Astronomical Twilight 5:43 AM CDT 8:10 PM CDT
Moon 12:59 PM CDT (3/9) 3:11 AM CDT (3/9)
Length of Visible Light 12h 35m
Length of Day
11h 47m
First Quarter, 61% of the Moon is Illuminated
Mar 9
First Quarter
Mar 16
Full
Mar 23
Last Quarter
Mar 30
New
Apr 7
First Quarter

Hourly Weather History & Observations

Time (CDT) Temp. Dew Point Humidity Pressure Visibility Wind Dir Wind Speed Gust Speed Precip Events Conditions
12:53 AM 48.9 °F 46.9 °F 93% 30.20 in 10.0 mi Calm Calm - N/A   Clear
1:53 AM 48.0 °F 46.0 °F 93% 30.18 in 8.0 mi Calm Calm - N/A   Scattered Clouds
3:53 AM 46.0 °F 44.1 °F 93% 30.17 in 7.0 mi Calm Calm - N/A   Partly Cloudy
4:53 AM 48.0 °F 46.9 °F 96% 30.18 in 9.0 mi Calm Calm - N/A   Clear
5:53 AM 48.0 °F 46.0 °F 93% 30.20 in 9.0 mi Calm Calm - N/A   Clear
6:53 AM 45.0 °F 44.1 °F 97% 30.23 in 8.0 mi Calm Calm - N/A   Clear
7:02 AM 45.0 °F 44.1 °F 97% 30.23 in 1.8 mi Calm Calm - N/A   Clear
7:10 AM 44.1 °F 43.0 °F 96% 30.23 in 3.0 mi Calm Calm - N/A   Clear
7:53 AM 48.0 °F 46.0 °F 93% 30.22 in 8.0 mi Calm Calm - N/A   Clear
8:53 AM 53.1 °F 50.0 °F 89% 30.22 in 10.0 mi Calm Calm - N/A   Clear
9:53 AM 64.9 °F 53.1 °F 65% 30.23 in 10.0 mi Variable 5.8 mph - N/A   Clear
10:53 AM 68.0 °F 52.0 °F 56% 30.23 in 10.0 mi Calm Calm - N/A   Clear
11:53 AM 69.1 °F 52.0 °F 54% 30.24 in 10.0 mi Calm Calm - N/A   Partly Cloudy
12:53 PM 69.1 °F 51.1 °F 53% 30.22 in 10.0 mi WNW 5.8 mph - N/A   Partly Cloudy
1:53 PM 72.0 °F 50.0 °F 46% 30.18 in 10.0 mi WNW 4.6 mph - N/A   Clear
2:53 PM 72.0 °F 48.0 °F 43% 30.16 in 10.0 mi Calm Calm - N/A   Partly Cloudy
3:53 PM 75.0 °F 46.9 °F 37% 30.13 in 10.0 mi Variable 3.5 mph - N/A   Clear
4:53 PM 75.0 °F 48.0 °F 38% 30.12 in 10.0 mi NW 3.5 mph - N/A   Clear
5:53 PM 73.9 °F 48.9 °F 41% 30.12 in 10.0 mi Calm Calm - N/A   Partly Cloudy
6:53 PM 66.9 °F 51.1 °F 57% 30.12 in 10.0 mi Calm Calm - N/A   Clear
7:53 PM 64.0 °F 52.0 °F 65% 30.14 in 10.0 mi South 5.8 mph - N/A   Clear
8:53 PM 61.0 °F 52.0 °F 72% 30.17 in 10.0 mi SSW 4.6 mph - N/A   Clear
9:53 PM 60.1 °F 52.0 °F 75% 30.18 in 10.0 mi SW 5.8 mph - N/A   Clear
10:53 PM 59.0 °F 52.0 °F 78% 30.18 in 10.0 mi SSW 3.5 mph - N/A   Clear
11:53 PM 55.9 °F 52.0 °F 87% 30.17 in 10.0 mi Calm Calm - N/A   Clear
12:53 AM 51.1 °F 48.9 °F 92% 30.16 in 10.0 mi Calm Calm - N/A   Clear